Showing default

OPS 7613 (P/L 5), 4247

Orbit data source: Space-Track

OPS 7613 (P/L 5), 4247 is an American payload satellite in LEO that was launched on Tue, 30 Sep 1969 UTC via a THORAD SLV-2G AGENA D launch vehicle from the Air Force Western Test Range (AFWTR). Payload-class satellites include a variety of spacecraft equipped with specific instruments for various scientific and technological missions. These include communications satellites like Starlink; space stations such as the ISS; scientific satellites like the Hubble; Earth observation satellites from companies like Planet Labs, Umbra, and HawkEye 360; GPS; miniature CubeSats for education and research; and military/defense satellites.

Loading next visibility...
Identifier
4247, 1969-082F
Orbit
LEO
Country
Flag of USUS
Related business
Manufacturer
NRL
Mission
Spacecraft
Bus & Motor
NRL MULTI, Unknown motor
Mass
102 kg wet, 102 kg dry
Launch date (UTC)
1969-09-30 (57 years ago)
Launch vehicle
THORAD SLV-2G AGENA D
Launch site
Air Force Western Test Range (AFWTR)
Object type
Payload
Rocket body
Debris
Shape & HBR
Unknown shape, 0.8 m
Radar Cross Section
Large (>1 m²)

Expand to show TLE details & history
Last TLE update: 3 days ago

TLE from 3 days ago
0 OPS 7613 (P/L 5)
1  4247U 69082F   26171.22289500  .00000064  00000-0  85323-4 0  9992
2  4247  70.0148  95.9867 0018397 129.9289 230.3437 13.95993657886833
Epoch: 2026-06-20T05:20Z
TLE epoch observation values (Epoch: 2026-06-20T05:20:58.128Z)
Latitude
0.00001°
Longitude
107.3039°
Altitude
918.585 km
Speed
7.389 km/s
True Right ascension
06h 23m 56s
True Declination
0° 00' 00"
Sunlit
Object was in daylight at epoch
Visualization orbit readout
Latitude
Unknown
Longitude
Unknown
Altitude
Unknown
Speed
Unknown
Apparent Right ascension
Unknown
Apparent Declination
Unknown
Sunlit
N/A
Visualization observer readout
Local Sidereal Time
12:51:29
Azimuth
Unknown
Elevation
Unknown
Doppler factor
Unknown
Orbital elements
Apogee altitude
919.143 km
Perigee altitude
892.343 km
Semi-major axis
7,283.88 km
Eccentricity
0.00184
Inclination
70.0148°
RAAN
95.9867°
Arg. of periapsis
129.9289°
True anomaly
230.18164°
Mean anomaly
230.3437°
Eccentric anomaly
230.26264°
Mean motion
3.49139 °/min
Orbital period
103.11 mins
BSTAR
0.000085323

Documentation

Showing up to 5 results
|